This is the latest recevied weather packets stored in our database for station/object K1AWR. If no packets are shown the sender has not sent any weather packets the latest 10 day(s).
| Time | Temp. | Humidity | Pressure | Rain* | Wind** | Luminosity | Snow |
|---|---|---|---|---|---|---|---|
| 1788565623 | 22.78° C | 68% | 1010.3 hPa | 0 mm | - | 0 W/m² | - |
| 1788565319 | 22.78° C | 69% | 1010.4 hPa | 0 mm | - | 0 W/m² | - |
| 1788565014 | 23.33° C | 65% | 1010.5 hPa | 0 mm | - | 0 W/m² | - |
| 1788564710 | 24.44° C | 61% | 1010.3 hPa | 0 mm | - | 0 W/m² | - |
| 1788564406 | 24.44° C | 61% | 1010.2 hPa | 0 mm | - | 1 W/m² | - |
| 1788564102 | 24.44° C | 61% | 1010.1 hPa | 0 mm | - | 1 W/m² | - |
| 1788563798 | 25° C | 59% | 1010.3 hPa | 0 mm | - | 2 W/m² | - |
| 1788563493 | 24.44° C | 59% | 1010.3 hPa | 0 mm | - | 3 W/m² | - |
| 1788563192 | 25° C | 63% | 1010.4 hPa | 0 mm | - | 5 W/m² | - |
| 1788562888 | 25° C | 59% | 1010.3 hPa | 0 mm | - | 7 W/m² | - |
| 1788562585 | 25° C | 60% | 1010.3 hPa | 0 mm | - | 8 W/m² | - |
| 1788562280 | 25° C | 59% | 1010.5 hPa | 0 mm | - | 9 W/m² | - |
| 1788561975 | 25° C | 63% | 1010.3 hPa | 0 mm | - | 11 W/m² | - |
| 1788561670 | 25.56° C | 61% | 1010.3 hPa | 0 mm | - | 13 W/m² | - |
| 1788561369 | 25.56° C | 58% | 1010.3 hPa | 0 mm | - | 18 W/m² | - |
| 1788561064 | 25.56° C | 56% | 1010.2 hPa | 0 mm | - | 23 W/m² | - |
| 1788560760 | 25.56° C | 56% | 1010 hPa | 0 mm | - | 25 W/m² | - |
| 1788560456 | 25.56° C | 56% | 1010 hPa | 0 mm | - | 28 W/m² | - |
| 1788560155 | 26.11° C | 55% | 1010.1 hPa | 0 mm | - | 31 W/m² | - |
| 1788559850 | 26.11° C | 57% | 1010 hPa | 0 mm | - | 32 W/m² | - |
| 1788559550 | 26.11° C | 56% | 1010.1 hPa | 0 mm | - | 33 W/m² | - |
| 1788559245 | 26.11° C | 56% | 1010.1 hPa | 0 mm | - | 39 W/m² | - |
| 1788558940 | 26.67° C | 58% | 1010 hPa | 0 mm | - | 39 W/m² | - |
| 1788558636 | 26.67° C | 56% | 1010 hPa | 0 mm | - | 37 W/m² | - |
| 1788558331 | 26.67° C | 54% | 1010 hPa | 0 mm | - | 40 W/m² | - |
* Rain latest hour (hover to see other rain measurements)
** Current wind speed in m/s (hover to see current wind gust speed)